Location: Quesnel
(52.9830°N, 122.4830°W)
Time: 01:06:43
(UTC-07:00)

ISS - All Passes

Search period start: 17 April 2014 00:00
Search period end: 27 April 2014 00:00
Orbit: 414 x 419 km, 51.6° (Epoch: 17 April)

Date Brightness Start Highest point End Pass type
(mag) Time Alt. Az. Time Alt. Az. Time Alt. Az.
17 Apr - 17:32:55 10° SSW 17:35:50 28° SSE 17:38:46 10° E daylight
17 Apr - 19:08:56 10° WSW 19:12:17 65° S 19:15:37 10° E daylight
17 Apr - 20:45:35 10° W 20:48:55 61° SSW 20:52:15 10° ESE visible
17 Apr - 22:22:32 10° W 22:25:19 24° SSW 22:28:05 10° SSE visible
18 Apr - 16:45:07 10° SSW 16:47:41 21° SSE 16:50:16 10° E daylight
18 Apr - 18:20:42 10° WSW 18:24:00 56° SSE 18:27:19 10° E daylight
18 Apr - 19:57:18 10° W 20:00:39 68° S 20:04:00 10° ESE daylight
18 Apr - 21:34:05 10° W 21:37:08 32° SSW 21:40:11 10° SE visible
19 Apr - 15:57:35 10° S 15:59:33 15° SE 16:01:31 10° ESE daylight
19 Apr - 17:32:29 10° SW 17:35:43 46° SSE 17:38:58 10° E daylight
19 Apr - 19:08:58 10° W 19:12:19 72° S 19:15:40 10° E daylight
19 Apr - 20:45:41 10° W 20:48:53 42° SSW 20:52:05 10° SE daylight
19 Apr - 22:23:24 10° WSW 22:25:00 13° SW 22:26:37 10° S visible
20 Apr - 15:11:20 10° SE 15:11:25 10° SE 15:11:30 10° SE daylight
20 Apr - 16:44:20 10° SW 16:47:25 35° SSE 16:50:32 10° E daylight
20 Apr - 18:20:36 10° W 18:23:57 70° S 18:27:18 10° E daylight
20 Apr - 19:57:17 10° W 20:00:34 52° SSW 20:03:51 10° ESE daylight
20 Apr - 21:34:26 10° W 21:36:50 18° SW 21:39:13 10° S visible
21 Apr - 15:56:15 10° SSW 15:59:07 27° SSE 16:02:01 10° E daylight
21 Apr - 17:32:13 10° WSW 17:35:32 64° S 17:38:53 10° E daylight
21 Apr - 19:08:51 10° W 19:12:11 62° S 19:15:30 10° ESE daylight
21 Apr - 20:45:45 10° W 20:48:34 25° SSW 20:51:23 10° SSE daylight
22 Apr - 15:08:19 10° SSW 15:10:49 20° SSE 15:13:20 10° E daylight
22 Apr - 16:43:50 10° WSW 16:47:07 55° SSE 16:50:25 10° E daylight
22 Apr - 18:20:23 10° W 18:23:44 69° S 18:27:05 10° ESE daylight
22 Apr - 19:57:10 10° W 20:00:14 33° SSW 20:03:17 10° SE daylight
23 Apr - 14:20:42 10° S 14:22:32 14° SE 14:24:22 10° ESE daylight
23 Apr - 15:55:28 10° SW 15:58:40 44° SSE 16:01:54 10° E daylight
23 Apr - 17:31:54 10° W 17:35:15 72° S 17:38:36 10° E daylight
23 Apr - 19:08:36 10° W 19:11:49 43° SSW 19:15:01 10° SE daylight
23 Apr - 20:46:12 10° WSW 20:47:57 14° SW 20:49:41 10° S daylight
24 Apr - 15:07:09 10° SW 15:10:13 34° SSE 15:13:18 10° E daylight
24 Apr - 16:43:23 10° WSW 16:46:43 69° S 16:50:04 10° E daylight
24 Apr - 18:20:02 10° W 18:23:20 54° SSW 18:26:37 10° ESE daylight
24 Apr - 19:57:08 10° W 19:59:36 19° SW 20:02:04 10° SSE daylight
25 Apr - 14:18:57 10° SSW 14:21:46 26° SSE 14:24:36 10° E daylight
25 Apr - 15:54:50 10° WSW 15:58:09 63° S 16:01:29 10° E daylight
25 Apr - 17:31:27 10° W 17:34:47 63° S 17:38:06 10° ESE daylight
25 Apr - 19:08:19 10° W 19:11:11 26° SSW 19:14:02 10° SSE daylight
26 Apr - 13:30:54 10° SSW 13:33:19 19° SE 13:35:44 10° E daylight
26 Apr - 15:06:18 10° WSW 15:09:34 53° SSE 15:12:51 10° E daylight
26 Apr - 16:42:50 10° W 16:46:10 70° S 16:49:31 10° E daylight
26 Apr - 18:19:35 10° W 18:22:40 35° SSW 18:25:45 10° SE daylight
